Vorticity
12 12 9 6 3 4 4 3 3 4 6 6 7 7 7 5 2 4 4 8 12 10 7 7 5 4 6 3 6 6 3 4 3 0 3 3 3 4 7 11 12 34 28 20 11
16 8 13 10 4 3 10 7 3 7 5 7 7 8 6 5 3 6 5 7 9 9 8 6 5 6 3 5 7 3 3 5 2 2 3 2 4 4 8 8 36 20 10 -5 5
16 12 16 22 9 10 16 16 -1 -4 9 7 8 7 7 5 3 4 2 2 10 9 8 8 7 4 3 7 5 3 4 3 3 4 2 3 2 4 6 32 31 18 13 12 16
8 13 11 16 16 13 5 -3 26 4 5 8 8 9 7 7 5 6 -7 14 12 9 9 9 5 4 4 6 4 3 4 1 3 1 2 4 3 5 15 30 22 11 12 16 11
5 10 3 14 11 12 13 18 21 14 -2 9 9 7 8 7 5 1 -3 9 14 9 11 7 4 2 8 5 3 2 3 1 2 2 2 3 5 7 30 36 12 11 7 12 14
8 6 8 13 12 7 9 2 19 28 8 3 11 7 8 8 8 -8 14 18 8 12 12 5 5 2 7 5 3 2 2 2 2 2 2 2 6 9 27 37 8 8 -4 13 12
5 13 11 11 5 12 15 4 5 24 29 -3 -7 3 9 9 9 -8 22 10 8 14 9 5 3 6 7 4 2 4 1 2 1 1 3 2 5 18 33 30 2 8 15 -2 5
6 5 6 3 5 14 10 19 10 7 17 7 4 2 -16 -22 -7 7 11 19 6 12 7 4 2 8 6 4 5 2 1 3 2 0 2 3 3 26 39 15 1 14 20 22 19
6 5 5 5 6 3 15 19 12 14 10 13 24 27 6 19 6 15 3 16 7 4 8 3 6 7 4 3 4 3 2 2 3 2 2 5 1 29 32 10 4 -2 25 23 9
9 6 8 2 10 5 16 7 31 12 12 9 13 16 4 12 9 13 9 16 6 7 10 3 10 6 5 4 3 3 3 2 2 3 1 4 8 37 23 11 5 -3 18 21 5
11 7 5 9 7 9 12 14 27 21 16 9 14 13 10 14 23 17 11 21 2 13 4 9 7 6 5 6 3 3 3 2 1 2 2 4 14 40 23 3 3 1 15 10 10
8 11 10 5 8 9 12 15 16 22 8 3 7 6 20 15 23 -1 18 15 6 1 7 8 5 8 5 5 3 3 3 2 1 2 1 6 16 49 10 6 6 1 18 7 11
9 7 8 3 9 11 8 12 21 12 4 13 9 2 28 20 17 5 17 8 2 4 5 7 4 7 5 5 3 3 2 3 3 2 1 5 16 40 16 7 4 11 9 12 3
10 6 10 7 10 8 9 8 17 17 15 16 13 13 7 13 21 15 13 9 2 3 4 4 4 7 5 4 3 3 3 2 2 2 3 4 14 30 38 3 7 8 7 17 3
5 6 8 9 8 9 6 3 9 8 13 13 13 10 13 7 7 10 18 12 2 4 6 6 3 6 5 5 4 4 3 2 3 2 3 4 13 10 51 6 2 9 9 18 -19
3 10 7 9 8 7 7 13 10 1 15 6 10 16 16 17 13 8 19 17 4 3 8 7 3 5 5 5 5 4 5 3 4 1 2 5 11 11 48 17 12 6 -1 8 6
3 10 12 9 14 6 7 8 7 8 8 17 14 12 -1 -3 -3 3 2 7 24 12 8 5 3 5 4 5 4 6 5 4 2 1 3 4 11 14 35 25 8 19 2 16 10
3 13 11 12 2 14 -3 -11 2 12 9 10 12 7 7 13 18 5 4 1 9 17 12 10 9 6 6 5 5 6 5 2 3 2 3 2 7 5 29 40 1 27 8 11 21
4 8 7 10 3 8 2 -2 1 13 15 12 13 18 7 2 13 14 11 6 8 9 12 9 17 6 6 5 5 6 7 1 3 1 3 2 9 11 28 51 0 1 11 13 40
7 26 7 21 13 10 3 -2 2 13 6 -1 5 8 11 19 13 12 17 4 7 9 10 11 14 5 5 6 5 6 7 2 2 2 3 2 3 8 32 35 9 3 6 17 25
16 4 23 -5 15 8 11 7 7 14 -1 13 3 -2 16 8 17 7 18 12 8 9 10 12 10 6 5 5 5 6 6 1 1 1 4 0 6 9 30 36 22 1 5 18 14
35 -13 12 -3 9 2 6 8 8 16 16 20 17 3 9 8 11 14 17 8 7 15 9 9 10 7 4 5 5 7 4 2 2 3 2 1 7 9 19 32 46 -1 3 14 10
-13 21 19 15 12 -0 2 3 -1 5 4 3 16 7 12 14 12 16 14 10 19 6 9 10 9 6 4 4 6 6 3 4 1 3 3 1 7 10 13 46 60 8 1 7 41
18 18 29 10 10 6 5 -7 6 15 19 8 12 7 13 5 13 13 12 15 14 5 10 9 6 7 5 4 6 5 3 4 2 2 2 3 4 9 13 29 39 31 -2 3 12
20 10 22 12 10 3 4 -0 4 6 8 15 19 11 9 15 17 14 15 13 13 15 11 7 8 11 5 6 6 5 5 3 4 2 0 2 2 5 16 30 28 47 4 4 7
13 7 14 -4 -8 18 4 8 -7 -12 15 12 4 5 7 -10 5 10 14 11 11 12 9 8 13 12 2 6 6 4 6 3 4 -0 0 3 1 5 9 27 41 38 17 4 5
21 -1 21 7 11 9 -20 12 4 2 13 15 4 23 14 7 13 9 12 10 10 14 13 8 12 11 3 4 6 7 5 3 4 1 2 3 1 6 7 23 36 45 23 5 2
Height
5818 5815 5814 5814 5812 5810 5808 5807 5805 5804 5803 5800 5798 5795 5794 5789 5788 5786 5784 5782 5780 5777 5775 5774 5772 5770 5768 5765 5762 5759 5755 5749 5743 5736 5729 5721 5712 5700 5688 5673 5659 5642 5627 5621 5614
5812 5811 5808 5805 5804 5803 5800 5799 5798 5797 5796 5794 5792 5790 5789 5785 5782 5780 5778 5775 5773 5771 5769 5767 5766 5765 5763 5759 5756 5752 5748 5742 5736 5727 5719 5710 5701 5689 5672 5655 5638 5626 5615 5610 5603
5805 5803 5800 5797 5796 5794 5793 5792 5790 5789 5789 5787 5786 5784 5782 5780 5778 5774 5771 5769 5767 5765 5763 5762 5760 5759 5757 5753 5750 5746 5740 5733 5726 5719 5711 5701 5689 5677 5661 5644 5627 5620 5613 5600 5593
5798 5796 5794 5791 5787 5785 5783 5782 5780 5781 5780 5779 5780 5779 5776 5773 5774 5769 5766 5762 5761 5758 5757 5756 5755 5753 5750 5747 5743 5738 5734 5728 5722 5712 5701 5690 5678 5663 5643 5628 5616 5608 5600 5590 5580
5790 5788 5785 5783 5780 5777 5775 5773 5772 5771 5772 5771 5771 5771 5770 5768 5765 5763 5760 5757 5754 5752 5750 5749 5748 5746 5743 5740 5737 5732 5726 5720 5714 5705 5694 5681 5665 5647 5630 5618 5608 5600 5591 5581 5573
5783 5781 5778 5772 5772 5770 5766 5764 5763 5762 5762 5763 5763 5763 5762 5762 5759 5756 5752 5750 5748 5745 5744 5743 5742 5740 5737 5733 5730 5725 5720 5713 5706 5696 5685 5672 5654 5635 5618 5607 5601 5594 5585 5575 5566
5776 5773 5770 5767 5763 5761 5759 5755 5754 5753 5752 5753 5754 5754 5754 5755 5752 5749 5746 5742 5742 5740 5738 5737 5736 5735 5732 5729 5724 5720 5715 5708 5700 5689 5676 5662 5645 5625 5610 5601 5594 5586 5577 5567 5558
5770 5767 5764 5760 5755 5753 5748 5746 5744 5745 5744 5743 5744 5743 5744 5743 5741 5740 5739 5736 5735 5734 5732 5731 5730 5729 5727 5724 5719 5714 5709 5701 5691 5679 5667 5654 5637 5619 5605 5596 5588 5580 5570 5561 5552
5763 5760 5757 5753 5750 5746 5741 5737 5735 5735 5734 5735 5735 5733 5734 5735 5734 5734 5731 5729 5729 5728 5726 5725 5725 5724 5721 5717 5714 5709 5703 5695 5686 5675 5662 5645 5630 5614 5598 5591 5583 5574 5564 5554 5547
5755 5752 5748 5745 5743 5738 5736 5730 5727 5725 5725 5725 5725 5728 5726 5726 5725 5725 5724 5723 5722 5723 5722 5720 5720 5718 5716 5713 5709 5704 5699 5691 5680 5669 5655 5639 5622 5604 5593 5588 5579 5570 5559 5550 5542
5747 5743 5740 5736 5734 5731 5728 5724 5721 5718 5716 5716 5717 5718 5718 5717 5717 5717 5716 5717 5717 5716 5716 5715 5715 5713 5712 5709 5704 5699 5692 5684 5673 5663 5652 5634 5617 5601 5589 5584 5577 5567 5556 5547 5539
5739 5735 5735 5731 5728 5724 5720 5717 5713 5711 5709 5708 5709 5709 5710 5710 5708 5709 5709 5711 5711 5711 5710 5712 5711 5709 5707 5703 5698 5693 5687 5679 5668 5659 5646 5629 5612 5595 5586 5581 5573 5563 5554 5546 5539
5731 5730 5727 5725 5723 5720 5715 5712 5708 5705 5703 5703 5702 5703 5702 5702 5700 5702 5703 5704 5707 5707 5706 5706 5706 5704 5702 5698 5693 5689 5683 5675 5667 5655 5642 5627 5611 5592 5583 5578 5572 5563 5553 5545 5538
5722 5722 5720 5718 5718 5714 5710 5707 5703 5700 5696 5699 5697 5697 5696 5696 5696 5695 5696 5700 5701 5702 5701 5701 5700 5699 5696 5693 5690 5685 5679 5671 5662 5652 5638 5624 5610 5594 5585 5578 5572 5564 5555 5547 5541
5714 5713 5712 5711 5710 5708 5705 5702 5700 5697 5693 5694 5692 5690 5690 5692 5692 5690 5692 5693 5696 5697 5697 5697 5695 5694 5692 5689 5685 5681 5675 5667 5660 5648 5636 5622 5607 5594 5583 5580 5574 5563 5556 5549 5542
5705 5705 5704 5705 5703 5702 5699 5697 5696 5695 5691 5690 5688 5686 5686 5686 5686 5687 5688 5689 5690 5691 5691 5691 5690 5690 5688 5685 5681 5677 5672 5664 5657 5647 5635 5619 5605 5595 5583 5578 5573 5563 5558 5552 5546
5696 5696 5697 5697 5698 5696 5694 5693 5692 5689 5688 5687 5685 5683 5683 5683 5683 5683 5684 5684 5685 5686 5686 5685 5686 5685 5683 5681 5678 5673 5667 5662 5655 5643 5633 5619 5603 5593 5580 5574 5571 5564 5559 5557 5549
5687 5687 5689 5690 5690 5690 5689 5688 5687 5686 5683 5682 5680 5680 5679 5678 5677 5677 5678 5679 5679 5679 5680 5680 5681 5680 5680 5677 5674 5671 5666 5660 5651 5643 5632 5616 5605 5596 5582 5574 5571 5566 5560 5560 5557
5677 5678 5680 5682 5683 5683 5684 5682 5682 5681 5679 5677 5675 5674 5673 5672 5672 5671 5672 5673 5674 5674 5675 5674 5675 5675 5675 5673 5672 5667 5663 5657 5649 5640 5628 5618 5606 5594 5583 5572 5571 5568 5565 5564 5562
5668 5670 5672 5668 5674 5675 5676 5677 5676 5675 5674 5674 5672 5670 5669 5667 5667 5666 5666 5667 5668 5668 5668 5669 5671 5671 5671 5670 5668 5663 5661 5653 5646 5637 5627 5617 5605 5595 5586 5574 5571 5570 5569 5568 5567
5656 5659 5659 5663 5666 5669 5670 5672 5671 5670 5670 5669 5668 5666 5664 5662 5662 5662 5662 5662 5663 5663 5664 5665 5667 5668 5667 5666 5663 5661 5657 5651 5645 5636 5626 5616 5607 5594 5588 5575 5571 5570 5570 5569 5571
5645 5648 5651 5656 5659 5662 5665 5665 5666 5665 5664 5663 5662 5662 5660 5659 5657 5656 5657 5657 5658 5658 5659 5660 5661 5663 5663 5661 5659 5657 5653 5649 5642 5635 5626 5617 5606 5594 5585 5575 5569 5570 5570 5570 5574
5637 5640 5642 5646 5650 5655 5658 5659 5660 5659 5659 5659 5658 5657 5656 5654 5654 5652 5652 5653 5653 5654 5655 5655 5657 5658 5659 5659 5657 5654 5651 5647 5640 5632 5624 5616 5607 5593 5583 5575 5568 5567 5569 5569 5575
5628 5629 5633 5637 5642 5648 5651 5652 5654 5653 5653 5653 5653 5652 5652 5650 5649 5648 5648 5649 5649 5650 5650 5651 5653 5654 5654 5654 5654 5651 5649 5644 5638 5631 5624 5616 5605 5592 5580 5570 5565 5566 5567 5569 5571
5618 5621 5626 5631 5637 5641 5644 5646 5648 5648 5648 5647 5647 5647 5648 5647 5645 5644 5644 5645 5645 5645 5645 5647 5649 5650 5650 5650 5649 5648 5646 5642 5636 5630 5624 5616 5605 5592 5580 5571 5563 5561 5565 5569 5569
5611 5613 5618 5623 5626 5632 5636 5639 5642 5642 5642 5642 5642 5643 5643 5643 5643 5641 5641 5641 5641 5641 5642 5644 5645 5645 5646 5647 5646 5644 5642 5638 5633 5629 5623 5615 5605 5593 5580 5571 5563 5558 5561 5566 5570
5604 5607 5609 5614 5619 5624 5628 5633 5635 5636 5637 5637 5637 5637 5638 5639 5638 5637 5638 5638 5638 5638 5639 5640 5641 5642 5643 5643 5642 5642 5640 5635 5631 5627 5622 5614 5605 5592 5581 5571 5561 5557 5559 5563 5568